Regional Weather Roundup
Issued by NWS

Home | Current Version | Previous Version | Text Only | Print | Product List | Glossary Off
Versions: 1 2 3 4 5 6 7 8 9 10 11 12 13 14 15 16 17 18 19 20 21 22 23 24 25 26 27 28 29 30 31 32 33 34 35 36 37 38 39 40 41 42 43 44 45 46 47 48 49 50

000
ASUS43 KMPX 281501
RWRMN
WEATHER ROUNDUP FOR MINNESOTA
NATIONAL WEATHER SERVICE TWIN CITIES/CHANHASSEN MN
1000 AM CDT SAT MAY 28 2016


NOTE: "FAIR" INDICATES FEW OR NO CLOUDS BELOW 12,000 FEET WITH NO
SIGNIFICANT WEATHER AND/OR OBSTRUCTIONS TO VISIBILITY. N/A MEANS
CURRENT SKY AND/OR WEATHER CONDITIONS ARE NOT AVAILABLE.

MNZ060>063-068>070-281600-
   Twin Cities Metro

CITY           SKY/WX    TMP DP  RH WIND       PRES   REMARKS
TWIN CITIES    CLOUDY    63  58  83 NE6       29.77R
ST PAUL        CLOUDY    63  58  83 CALM      29.77S
CRYSTAL        CLOUDY    60  56  86 E5        29.76R
BLAINE         CLOUDY    61  61 100 VRB6      29.77R
EDEN PRAIRIE   CLOUDY    64  58  80 E7        29.76S
SOUTH ST PAUL  CLOUDY    63  60  89 CALM      29.76F
LAKE ELMO      CLOUDY    63  61  94 CALM      29.78S
$$
MNZ001>005-007-008-013>017-022>024-027-028-281600-
   Northwest Minnesota

CITY           SKY/WX    TMP DP  RH WIND       PRES   REMARKS
BEMIDJI        CLOUDY    57  56  96 NE7       29.81S FOG
HALLOCK        CLOUDY    68  57  68 CALM      29.85S
ROSEAU         PTSUNNY   63  57  82 NE8       29.87S
WARROAD        CLOUDY    63  57  82 NE9       29.88S
THIEF RVR FALL CLOUDY    63  54  72 NE7       29.86S
CROOKSTON      PTSUNNY   66  57  72 NE7       29.84S
FOSSTON        CLOUDY    61  55  82 NE13      29.85R HAZE
DETROIT LAKES  MOSUNNY   63  54  72 NE9       29.81F
MOORHEAD       CLOUDY    64  55  72 NE9       29.82S
PARK RAPIDS    CLOUDY    60  53  77 N9        29.79S
MAHNOMEN       CLOUDY    61  52  73 NE12      29.83R
$$
MNZ006-009>011-018-025>026-281600-
   North Central Minnesota

CITY           SKY/WX    TMP DP  RH WIND       PRES   REMARKS
BAUDETTE       CLOUDY    61  58  90 NE6       29.85S
FLAG ISLAND    PTSUNNY   63  57  82 NE12      29.87S
INTL FALLS     CLOUDY    59  55  87 NE10      29.83F FOG
WASKISH        CLOUDY    61  55  82 NE8       29.83S
BIG FORK       LGT RAIN  57  55  94 NE6       29.80S
LONGVILLE      CLOUDY    57  55  94 CALM      29.79S
GRAND RAPIDS   CLOUDY    57  56  96 VRB3      29.80S FOG
CRANE LAKE     CLOUDY    55  55 100 CALM      29.83S FOG
ORR            CLOUDY    57  54  88 CALM      29.78S FOG
COOK           LGT RAIN  57  57 100 CALM      29.80S
WALKER         CLOUDY    56  54  92 N5        29.79F
$$
MNZ012-019>021-037-281600-
   Northeast Minnesota

CITY           SKY/WX    TMP DP  RH WIND       PRES   REMARKS
DULUTH         FOG       54  52  93 N7        29.77F VSB 3/4
ELY            CLOUDY    57  55  94 E5        29.79S FOG
HIBBING        CLOUDY    57  57 100 E5        29.79R FOG
EVELETH        FOG       57  55  94 E3        29.80R VSB 1
DULUTH HARBOR  CLOUDY    46  45  93 N6        29.78F FOG
TWO HARBORS    HAZE      55  50  82 NE5       29.76F VSB 3/4
SILVER BAY     FOG       54  52  94 NE7       29.77F VSB 3/4
GRAND MARAIS     N/A     46  45  96 NE7       29.79S
G MARAIS ARPRT CLOUDY    55  54  94 N10       29.82S FOG
$$
MNZ029>031-032-039>041-046>048-054>057-064-281600-
   West Central Minnesota

CITY           SKY/WX    TMP DP  RH WIND       PRES   REMARKS
FERGUS FALLS   MOSUNNY   64  54  68 NE6       29.76F
WHEATON        PTSUNNY   64  57  77 N7        29.81F
MORRIS         CLOUDY    63  57  82 NE3       29.79S
ALEXANDRIA     CLOUDY    62  55  77 NE9       29.79S
ELBOW LAKE     FAIR      62  55  78 E6        29.79F
WADENA         CLOUDY    61  54  77 NE3       29.79R
GLENWOOD       CLOUDY    61  55  82 NE6       29.79S
APPLETON       RAIN      63  55  77 NE7       29.79S
BENSON         CLOUDY    61  54  77 E2        29.80
ORTONVILLE     CLOUDY    63  55  77 NE3       29.80S
MADISON        LGT RAIN  61  57  88 N6        29.80S
WILLMAR        DRIZZLE   61  57  88 E3        29.80S
$$
MNZ033>034-036-042>043-049>051-058-059-281600-
   Central Minnesota

CITY           SKY/WX    TMP DP  RH WIND       PRES   REMARKS
ST CLOUD       CLOUDY    59  56  89 N5        29.76S
SAUK CENTRE    CLOUDY    59  55  85 N6        29.78F
PAYNESVILLE    CLOUDY    59  57  92 NE5       29.78S
AITKIN         CLOUDY    61  54  77 N5        29.76F
PINE RIVER     CLOUDY    57  55  94 NE6       29.82S
BRAINERD       CLOUDY    58  55  90 CALM      29.78S
STAPLES        CLOUDY    57  54  88 N5        29.79R
LONG PRAIRIE   CLOUDY    57  54  88 NW5       29.79S
LITTLE FALLS   CLOUDY    61  54  77 CALM      29.77F
LITCHFIELD     CLOUDY    61  59  94 NE3       29.79R
BUFFALO        CLOUDY    58  55  89 N5        29.79R
MAPLE LAKE     CLOUDY    58  58  97 N3        29.78S
HUTCHINSON     CLOUDY    61  58  92 N5        29.79R
$$
MNZ037-044-045-052-053-281600-
   East Central Minnesota

CITY           SKY/WX    TMP DP  RH WIND       PRES   REMARKS
PRINCETON      CLOUDY    59  57  94 N6        29.76S
MORA           CLOUDY    55  52  88 CALM      29.79S
CAMBRIDGE      CLOUDY    59  52  77 E3        29.77R
RUSH CITY      CLOUDY    57  53  89 CALM      29.79R
MOOSE LAKE     CLOUDY    54  52  94 NE7       29.75F FOG
HINCKLEY       CLOUDY    55  55 100 NW5       29.76F
CLOQUET        CLOUDY    52  50  93 CALM      29.78F FOG
MCGREGOR       CLOUDY    59  55  88 N3        29.78F
$$
MNZ071>073-080-081-089-090-097-098-281600-
   Southwest Minnesota

CITY           SKY/WX    TMP DP  RH WIND       PRES   REMARKS
MONTEVIDEO     LGT RAIN  59  57  94 NE12      29.80S
GRANITE FALLS  RAIN      61  59  93 N3        29.80R
CANBY          RAIN      63  60  91 N5        29.80S
MARSHALL       RAIN      59  58  96 E5        29.79R FOG
REDWOOD FALLS  LGT RAIN  59  57  93 E3        29.77R FOG
OLIVIA         RAIN      59  55  88 NE8       29.77S
PIPESTONE      RAIN      61  59  94 NE5       29.78R
WINDOM         LGT RAIN  61  61 100 N6        29.77R
WORTHINGTON    RAIN      62  61  96 E6        29.78R FOG
JACKSON        LGT SNOW  63  59  88 SW10      29.78R VSB 1
TRACY          LGT RAIN  60  60  99 N8        29.78S
SLAYTON        HVY RAIN  60  60 100 NE6       29.78S
$$
MNZ065>067-074>077-082>085-091>093-281600-
   South Central Minnesota

CITY           SKY/WX    TMP DP  RH WIND       PRES   REMARKS
MANKATO        CLOUDY    64  59  82 SE10      29.76R
NEW ULM        HVY RAIN  61  61 100 W3        29.78R
ST JAMES       DRIZZLE   57  57 100 CALM      29.76S
FAIRMONT       CLOUDY    68  61  77 SW15      29.75R
GLENCOE        CLOUDY    62  60  93 NE3       29.77R
FARIBAULT      CLOUDY    64  63  94 E5        29.77R
OWATONNA       DRIZZLE   66  63  88 SE5       29.77R
WASECA         DRIZZLE   63  59  88 SE6       29.78R
ALBERT LEA     CLOUDY    64  64 100 SE3       29.77S
$$
MNZ078>079-086>088-094>096-281600-
   Southeast Minnesota

CITY           SKY/WX    TMP DP  RH WIND       PRES   REMARKS
ROCHESTER      CLOUDY    67  64  90 CALM      29.77S
RED WING       PTSUNNY   68  63  83 S3        29.75R
STANTON        CLOUDY    67  61  83 CALM      29.76R
DODGE CENTER   CLOUDY    64  64 100 CALM      29.78R
WINONA         CLOUDY    70  66  88 NW5       29.75S FOG
AUSTIN         RAIN      63  61  94 CALM      29.78R
PRESTON        CLOUDY    66  60  82 S8        29.79R
$$
ABBREVIATIONS USED IN REMARKS
   TC - TEMPERATURES IN CELSIUS
  WCI - WIND CHILL INDEX
   HX - HEAT INDEX
  VSB - VISIBILITY
$$




USA.gov is the U.S. government's official web portal to all federal, state and local government web resources and services.